Theta_e
316 316 316 316 316 316 316 316 316 316 316 316 316 316 315 315 315 315 315 315 315 315 315 315 315 315 315 315 315 315 315 314 314 314 314 314 313 313 312 312 312 312 312 312 312 312 312 312 311 311 311 311 311 311 310 309 308 308 307 307 307 305 304 304 303 306 309 308 307 307 307 305 305 305 305 306 306 307 308 308 309 309 309 309 310
316 316 315 316 316 316 316 316 316 316 315 316 315 315 315 315 315 315 315 315 315 315 315 315 315 315 315 315 314 314 314 314 313 313 313 313 313 312 312 312 312 312 312 312 312 312 311 311 311 311 311 311 311 311 310 309 308 308 307 306 307 306 304 304 304 304 307 309 307 306 306 306 305 306 305 306 306 306 307 307 307 308 309 309 309
315 316 316 316 316 316 316 316 315 315 315 315 315 315 315 315 315 315 315 315 315 315 315 315 315 314 314 314 314 313 313 312 312 312 312 312 312 311 311 311 311 311 311 311 311 311 311 311 311 311 311 310 310 310 310 309 308 308 307 306 306 306 304 304 305 304 305 308 307 306 305 306 306 306 305 305 305 305 306 306 306 306 307 307 308
316 316 316 316 316 315 315 315 315 315 315 315 315 315 315 314 314 314 314 314 314 315 314 314 314 313 313 313 312 312 311 311 311 311 311 311 311 311 310 310 310 310 310 310 310 310 310 310 310 310 310 310 310 310 310 309 309 308 308 307 306 306 305 304 305 305 304 306 307 307 305 305 305 305 304 304 304 304 304 305 305 305 305 306 306
316 315 316 315 315 315 315 315 315 315 315 314 314 314 314 313 314 314 314 314 314 314 313 313 312 312 311 311 311 311 311 311 311 310 310 310 309 309 309 309 309 309 309 309 309 309 309 309 309 309 309 309 309 309 309 309 309 309 308 307 307 306 305 304 304 305 304 304 306 307 305 304 305 304 304 303 303 304 304 304 304 304 303 303 304
315 315 315 315 315 315 315 315 315 314 314 314 314 313 313 313 314 314 314 313 313 312 312 311 311 311 311 311 310 310 310 310 309 309 308 308 308 308 307 307 307 307 307 307 308 308 308 308 308 308 308 309 308 309 309 309 309 308 308 308 307 305 304 304 304 304 305 304 304 305 305 304 304 304 304 303 303 303 303 303 303 302 302 302 302
315 315 315 315 315 315 315 315 315 314 314 313 313 313 313 313 313 313 312 312 311 311 311 310 310 310 310 309 309 309 308 308 307 307 306 306 306 306 306 305 305 305 305 305 305 305 305 306 306 306 306 307 307 307 308 308 308 308 308 307 307 305 303 303 303 303 304 304 304 304 304 304 304 304 304 303 302 302 302 302 302 302 302 302 302
315 315 314 314 314 314 314 314 314 313 313 313 313 312 312 312 311 311 311 310 310 310 310 309 309 309 308 308 308 307 306 306 305 304 304 304 304 303 303 303 302 302 302 302 302 303 303 303 303 303 303 304 304 305 306 306 307 307 307 307 306 305 303 303 302 302 303 303 303 303 303 303 303 303 303 302 302 302 302 301 302 302 301 301 302
314 314 314 314 314 314 313 313 313 312 312 312 311 311 311 310 310 310 310 309 309 309 309 308 308 308 307 307 306 304 303 303 302 302 302 302 301 301 301 301 300 300 300 300 300 300 300 300 301 301 301 301 302 303 303 304 305 305 306 306 306 305 304 303 302 302 302 302 302 302 302 302 303 302 302 302 302 302 302 301 301 302 301 301 301
314 314 314 313 313 312 312 312 311 311 311 311 310 310 310 310 309 309 309 308 308 308 307 307 307 306 305 304 303 302 301 301 301 300 300 300 300 300 299 300 299 299 299 299 300 300 299 299 299 299 299 300 300 301 301 303 304 304 304 305 305 304 303 302 301 301 301 302 302 302 302 302 302 302 302 302 301 301 301 301 301 301 301 300 301
313 313 312 312 311 311 311 310 310 310 310 310 309 309 309 309 308 308 307 307 306 306 305 304 304 303 302 301 301 301 300 300 300 299 299 299 299 299 299 299 299 299 299 299 299 299 299 299 299 299 299 299 299 299 300 301 302 303 303 304 304 304 304 303 302 301 301 301 301 301 301 301 302 302 301 301 301 301 301 301 301 301 300 299 300
311 311 311 310 310 310 309 309 309 309 309 309 308 308 307 306 306 305 304 304 303 302 302 301 301 301 301 300 300 300 300 300 299 299 299 299 298 298 298 298 298 298 298 298 298 298 298 298 298 298 298 298 298 298 298 299 299 301 302 303 304 304 304 303 303 302 300 300 300 300 301 301 301 301 301 300 300 300 300 300 300 300 300 299 299
310 310 309 309 309 309 309 309 308 308 307 306 305 305 304 303 302 302 301 301 301 300 300 300 300 300 299 299 299 299 299 299 298 298 298 297 297 296 297 297 296 296 296 296 297 297 297 297 297 297 297 297 297 297 297 298 298 299 300 301 303 304 304 304 303 302 301 299 299 300 302 301 300 300 301 300 299 300 299 299 300 299 299 299 299
309 309 309 308 308 308 307 307 306 305 304 303 302 301 301 300 300 300 299 299 299 299 299 299 299 299 298 298 298 298 298 298 297 297 296 296 295 295 295 295 295 295 295 295 295 295 295 295 295 295 295 295 295 296 296 296 297 298 299 300 301 302 303 304 303 303 302 300 300 301 302 302 300 300 301 299 299 299 299 299 299 299 299 299 299
308 308 307 307 306 305 304 303 302 301 301 300 300 299 299 299 299 299 299 300 300 300 300 300 299 299 299 298 298 298 297 297 296 296 295 295 294 294 294 294 294 294 294 294 294 294 294 294 294 294 294 294 294 294 294 295 296 297 298 299 301 302 302 303 303 302 302 301 301 301 301 301 300 299 299 299 299 299 299 299 299 299 298 298 298
306 305 304 303 302 301 301 300 300 300 299 299 300 300 300 300 301 301 301 301 301 300 300 299 299 298 298 297 296 297 296 295 294 294 294 293 293 293 293 293 293 293 293 293 293 293 293 293 293 294 294 293 293 293 293 294 295 296 297 299 300 301 302 302 302 301 301 301 300 299 299 299 298 297 297 297 298 298 298 298 298 298 297 297 297
302 301 301 300 300 300 300 300 300 301 301 301 302 302 301 301 301 300 300 299 298 298 297 297 296 295 295 294 294 294 294 294 293 293 293 293 292 292 292 292 292 292 293 293 293 292 292 293 293 293 293 293 293 293 293 294 295 296 297 298 299 300 301 301 300 300 300 299 298 297 297 296 296 296 296 296 297 297 297 297 297 297 296 296 296
300 300 300 300 301 301 301 301 302 301 301 301 300 300 299 298 297 297 296 296 295 295 294 294 294 293 293 293 293 293 293 293 293 293 293 292 292 292 292 292 292 292 292 292 292 292 292 292 292 292 293 293 293 293 293 294 295 296 296 297 298 299 299 299 298 298 298 297 296 296 295 295 295 295 295 296 296 296 296 296 296 296 296 295 295
301 301 301 301 301 301 300 300 300 299 298 297 296 296 295 295 294 294 294 293 293 293 293 293 293 293 293 293 293 293 293 293 293 292 292 292 291 291 291 291 291 291 291 291 292 292 291 291 291 291 292 293 293 293 293 294 295 295 296 296 296 297 298 297 296 296 295 295 294 294 294 294 294 294 295 295 295 296 296 295 295 295 295 295 295
301 300 300 299 298 298 297 297 296 295 295 294 294 293 293 293 293 293 292 292 292 292 292 292 293 293 293 293 293 293 292 293 293 292 292 291 291 290 290 290 290 290 290 290 291 291 291 291 291 291 292 292 293 293 294 294 294 294 294 294 294 295 296 295 294 294 294 293 293 293 293 294 294 294 294 294 295 295 295 295 295 295 295 295 294
298 297 297 296 295 295 295 294 294 293 293 293 292 292 292 292 292 292 292 292 292 292 292 292 292 293 293 292 292 292 292 292 292 292 292 291 291 290 290 290 290 290 290 290 290 290 290 290 290 290 291 292 293 293 294 294 294 293 293 293 293 293 294 293 294 294 293 293 293 293 294 294 294 294 294 294 294 294 295 295 295 295 295 294 294
296 295 295 294 294 294 293 293 293 292 292 292 292 292 291 292 292 292 292 292 292 292 292 292 292 292 292 292 292 292 292 292 292 292 291 291 290 290 290 290 290 290 290 290 290 290 290 291 291 291 291 292 292 293 293 293 292 292 292 292 292 293 293 293 293 294 293 293 293 293 294 293 293 293 293 293 293 293 293 294 294 294 294 294 293
295 294 294 293 293 293 292 292 292 292 292 291 291 291 291 291 291 291 291 291 291 291 291 291 291 292 292 292 292 292 292 291 291 291 290 290 290 290 290 290 290 290 289 290 290 290 290 291 291 291 291 291 292 292 292 291 291 291 291 291 292 292 292 292 293 293 294 294 293 293 293 293 293 293 293 293 293 293 293 293 293 293 293 293 292
294 293 293 293 292 292 292 292 291 291 291 291 291 291 291 291 291 291 291 291 291 291 291 291 291 291 291 291 291 291 291 291 290 290 290 290 290 290 290 290 290 289 289 289 289 289 289 290 290 290 290 291 291 291 290 291 290 290 291 291 291 292 292 292 293 293 293 293 293 292 292 292 293 293 293 293 293 293 292 292 292 292 292 291 291
292 292 292 292 292 291 291 291 291 291 291 291 291 291 291 291 291 290 290 290 290 290 290 289 289 289 290 290 290 290 290 290 290 290 290 290 290 290 289 289 289 289 288 288 288 288 288 288 289 289 289 289 289 289 289 290 290 290 290 291 291 291 292 292 292 291 291 291 291 291 291 292 292 292 292 292 292 292 292 291 291 291 291 290 290
292 292 291 291 291 291 291 291 290 291 291 290 291 290 290 290 290 290 290 289 289 289 289 289 289 289 289 289 289 289 289 289 289 290 290 290 289 289 289 288 288 288 287 286 286 286 286 286 286 287 287 287 287 287 288 289 290 290 290 290 290 291 291 291 291 290 290 290 290 290 290 291 291 291 291 291 291 291 290 290 290 290 290 290 290
291 291 291 291 291 290 290 290 290 290 290 290 290 290 290 290 289 289 289 289 289 289 289 289 289 289 289 289 289 289 289 289 289 290 290 289 289 287 287 286 286 286 285 284 284 285 285 285 286 286 286 286 287 287 287 288 289 289 290 290 290 290 291 290 290 290 289 289 289 289 289 290 290 290 290 290 289 289 289 289 290 289 289 289 289
291 291 291 290 290 290 290 290 290 290 290 290 290 290 289 289 289 289 289 288 288 288 288 288 288 288 288 288 288 289 289 289 289 289 289 288 287 285 284 284 284 284 284 284 284 285 285 286 286 286 286 287 287 288 288 288 289 289 289 289 289 290 290 289 289 289 289 288 288 288 288 289 289 289 289 288 288 288 288 289 289 289 289 288 288
291 291 290 290 290 290 290 290 290 290 289 289 289 289 289 289 289 288 288 288 288 288 288 288 288 288 287 287 287 287 288 288 288 288 287 287 285 283 283 283 283 283 283 284 284 285 285 286 286 286 287 287 288 288 288 289 289 289 289 289 289 289 289 289 288 288 288 288 287 287 288 288 288 288 288 288 287 287 288 288 288 288 288 288 287
291 290 290 290 290 289 289 289 289 289 289 289 289 289 289 288 288 288 288 288 288 288 287 287 287 286 286 287 286 286 285 286 286 286 286 286 285 285 284 283 283 283 283 284 285 285 286 286 286 287 287 287 288 288 288 289 289 289 289 289 289 289 288 288 287 287 287 287 287 287 287 287 287 287 287 287 287 287 287 287 287 287 287 287 286
290 290 289 289 289 289 289 289 289 289 288 288 288 288 288 288 288 288 288 287 288 287 287 287 286 286 286 286 286 286 285 285 285 285 285 286 286 285 285 284 283 283 283 284 285 285 286 286 286 286 287 287 288 288 288 288 288 288 288 288 288 287 287 287 287 287 286 286 286 286 286 286 286 286 286 286 286 286 286 287 287 287 287 286 286
289 289 289 289 289 289 288 288 288 288 288 288 288 288 288 288 288 287 287 287 287 287 287 287 286 286 285 285 285 285 286 285 285 285 284 284 284 285 285 285 284 284 283 284 285 285 285 286 286 286 287 287 288 288 288 288 287 287 287 287 287 287 287 287 286 286 286 286 286 286 286 286 286 286 286 286 286 286 286 286 286 286 286 285 284
289 289 289 288 288 288 288 288 288 288 288 287 287 287 287 287 287 287 287 287 287 287 287 286 286 285 284 284 283 283 284 285 285 285 284 283 283 283 284 284 284 284 284 284 284 285 285 285 286 286 287 287 287 287 287 287 286 286 286 286 286 286 286 286 286 285 285 285 285 285 285 285 285 285 286 286 285 285 285 285 285 285 285 284 284
288 288 288 288 288 288 288 288 287 287 287 287 287 287 286 286 286 286 286 287 287 286 286 285 284 284 284 284 284 283 282 282 283 284 283 283 282 282 283 283 283 283 284 284 284 284 284 285 285 285 286 286 286 286 286 286 286 286 286 286 286 286 285 285 285 285 285 285 285 285 285 285 285 285 285 285 285 285 285 285 285 284 284 283 283
288 288 288 288 288 287 287 287 287 287 286 286 286 286 285 285 285 285 285 285 285 285 285 284 283 283 283 283 284 283 281 280 280 281 282 282 281 281 282 282 282 283 283 283 283 283 284 284 284 285 285 285 286 286 286 286 286 286 285 285 285 285 285 285 285 285 285 285 285 285 285 285 285 285 285 285 285 284 284 284 284 284 283 283 283
288 288 288 287 287 287 287 286 286 286 285 285 285 285 285 284 284 284 283 283 283 283 283 283 283 283 282 282 282 283 282 281 280 280 280 280 280 281 281 282 282 282 282 282 282 283 283 283 284 284 284 285 285 285 285 285 285 285 285 285 285 285 285 284 284 284 285 285 285 285 285 285 285 285 284 284 284 284 284 284 283 283 283 282 282
288 287 287 287 287 286 286 286 285 285 285 284 284 284 284 283 283 282 282 282 282 282 282 282 281 282 282 281 281 282 283 282 281 280 279 280 280 281 281 281 281 281 281 282 282 282 282 282 283 283 284 284 284 285 285 285 285 285 285 285 285 285 285 284 284 284 285 285 285 285 285 285 284 284 284 283 283 283 283 283 283 282 282 282 282
287 287 287 286 286 286 285 285 285 284 284 284 283 283 283 282 282 282 282 281 281 281 281 280 280 280 280 280 280 281 282 282 282 281 279 279 280 280 281 281 281 281 281 281 281 281 281 282 282 282 283 283 284 284 284 284 284 284 284 284 284 284 284 284 284 284 284 284 285 285 285 285 284 283 283 283 283 283 283 283 282 282 282 282 282
287 286 286 286 285 285 285 284 284 284 283 283 283 282 282 282 282 281 281 281 280 280 280 279 279 279 279 279 279 280 280 280 280 280 279 278 278 279 279 280 280 280 280 280 280 280 280 280 281 281 282 282 283 283 283 283 283 284 284 284 284 284 284 284 284 284 284 284 284 284 285 285 285 284 283 283 283 283 282 282 282 282 282 282 282
286 285 285 285 284 284 284 283 283 283 283 282 282 282 282 281 281 281 280 280 280 279 279 279 278 278 278 278 277 277 278 278 278 278 278 278 277 278 278 278 279 279 280 280 280 280 279 279 280 280 280 281 281 282 282 282 282 283 283 283 283 284 284 284 284 284 284 284 284 284 284 285 285 285 285 284 284 283 283 282 282 282 282 282 282
285 284 284 284 283 283 283 283 282 282 282 282 281 281 281 280 280 280 280 279 279 279 279 278 278 278 277 277 277 276 276 276 276 276 277 277 277 277 277 277 277 278 278 279 279 279 279 279 279 279 279 280 280 280 281 281 281 282 282 283 283 283 283 284 284 283 283 283 283 284 284 284 284 285 285 285 285 284 284 283 283 282 282 282 282
284 284 283 283 283 282 282 282 282 281 281 281 280 280 280 280 279 279 279 279 279 278 278 278 278 277 277 277 277 276 276 276 276 276 276 276 276 276 276 276 276 276 277 277 278 278 278 278 278 278 279 279 279 279 280 280 281 281 281 282 282 282 283 283 283 283 283 283 283 283 283 283 284 284 284 284 285 285 285 284 284 283 282 282 282
283 283 283 282 282 282 282 281 281 281 280 280 280 280 279 279 279 279 279 278 278 278 278 278 278 277 277 277 276 276 276 276 276 275 275 275 275 276 276 276 276 276 276 276 277 277 277 278 278 278 278 278 278 278 279 279 280 280 280 281 281 281 282 282 282 283 283 283 283 283 283 283 283 283 283 284 284 284 284 284 284 283 283 283 283
282 282 282 282 281 281 281 281 280 280 280 279 279 279 279 278 278 278 278 278 278 277 277 277 277 277 277 276 276 276 276 276 275 275 275 275 275 275 275 275 275 275 276 276 276 276 276 277 277 277 278 278 278 278 278 278 279 279 279 280 280 280 281 281 281 282 282 282 283 283 283 283 283 283 283 283 283 283 283 283 283 283 283 283 283
282 281 281 281 281 280 280 280 279 279 279 278 278 278 277 277 277 277 277 277 277 277 276 276 276 276 276 276 276 275 275 275 275 275 275 274 274 274 275 275 275 275 275 275 275 276 276 276 276 277 277 277 277 277 278 278 278 278 279 279 279 279 280 280 280 280 281 281 282 282 282 282 283 283 283 283 283 283 283 283 283 283 283 283 282
281 281 280 280 280 280 279 279 278 278 278 277 277 277 276 276 276 276 276 275 275 275 275 275 275 274 274 274 274 274 274 274 275 275 275 274 274 274 274 274 274 274 274 274 274 275 275 275 276 276 276 276 277 277 277 277 278 278 278 278 278 279 279 279 279 279 279 280 281 281 281 281 281 282 282 282 282 282 282 282 282 282 281 281 281
280 280 280 280 279 279 279 278 277 277 277 276 276 276 275 275 275 274 274 274 274 274 274 273 273 273 273 273 273 273 273 273 273 274 274 274 274 274 274 274 274 274 274 274 274 274 274 275 275 275 275 276 276 276 276 277 277 277 278 278 278 278 278 278 278 278 279 279 279 280 280 280 280 280 280 281 281 281 281 281 280 280 280 280 280
280 280 279 279 279 278 277 277 276 276 276 276 275 275 275 274 274 274 273 273 273 273 273 273 272 272 272 272 272 272 272 272 272 272 273 273 273 274 274 274 274 274 274 274 274 274 274 274 274 275 275 275 275 276 276 276 277 277 277 277 278 278 278 278 278 278 278 278 278 279 279 279 279 279 279 280 280 280 280 279 279 279 279 279 278
279 279 279 278 277 277 276 276 275 275 275 275 275 274 274 274 273 273 273 273 273 272 272 272 272 272 272 272 272 272 271 271 271 271 271 272 272 272 273 273 273 274 274 274 274 274 274 274 274 274 275 275 275 275 275 276 276 276 277 277 277 277 277 277 278 278 278 278 278 278 278 278 278 278 278 279 279 279 279 278 278 278 278 278 277
279 278 278 277 276 276 275 275 275 275 275 274 274 274 273 273 273 273 272 272 272 272 272 272 272 272 272 272 271 271 271 271 271 271 271 271 271 271 272 272 272 272 273 273 273 274 274 274 274 274 274 275 275 275 275 275 276 276 276 276 276 277 277 277 277 277 277 277 277 277 277 277 277 277 277 278 278 278 278 277 277 277 277 277 277
278 277 277 276 276 275 275 274 274 274 274 274 273 273 273 273 273 272 272 272 272 272 272 272 272 272 272 271 271 271 271 271 271 271 271 271 271 271 271 271 271 272 272 272 272 273 273 273 273 274 274 274 274 275 275 275 275 275 276 276 276 276 276 277 277 277 277 277 277 277 277 277 277 277 277 277 277 277 277 277 276 276 276 276 276
Wind_Speed
13 12 12 12 12 11 10 9 8 7 8 10 12 13 13 14 14 16 17 17 18 19 21 23 24 25 27 28 29 29 28 28 28 29 30 31 32 32 33 33 33 33 32 33 33 35 36 37 38 37 37 39 39 39 39 39 38 36 35 38 41 39 37 38 45 53 55 49 47 48 46 45 47 48 48 48 47 45 43 42 41 42 44 44 44
12 12 12 12 11 10 9 8 8 9 11 13 14 14 14 15 16 17 18 19 20 21 22 24 25 26 26 27 27 26 26 26 27 28 29 30 30 31 31 31 31 31 31 31 31 31 33 33 34 34 34 36 37 37 38 39 39 39 39 40 42 39 36 37 41 48 54 52 48 48 47 46 48 49 49 50 49 48 49 48 46 45 46 45 46
12 12 11 11 9 9 9 9 11 12 13 14 15 15 16 17 18 19 19 20 21 22 23 24 24 25 25 24 24 24 25 25 26 27 27 27 27 27 27 27 27 28 28 28 28 29 30 31 31 32 33 34 35 35 36 38 38 40 41 41 41 40 37 37 40 46 52 54 52 50 49 48 49 50 50 51 51 50 51 52 51 49 49 48 48
11 11 10 10 10 10 11 12 13 14 15 16 17 18 18 19 19 19 20 20 22 22 23 23 23 23 23 22 23 23 23 24 24 24 25 25 25 25 25 25 26 27 27 27 27 28 29 30 30 30 31 33 34 34 34 36 37 38 39 39 39 40 39 38 40 44 49 54 54 52 50 50 51 51 50 50 51 52 53 54 54 53 53 52 51
10 10 10 10 11 12 13 14 16 17 18 18 18 19 19 19 19 19 20 20 21 21 22 22 21 20 20 21 21 21 22 23 23 23 23 24 24 24 25 26 26 27 28 28 28 29 30 31 31 30 31 33 34 34 34 35 36 36 38 38 38 39 40 40 41 42 46 52 55 54 52 52 53 53 51 51 52 53 54 55 55 55 55 54 53
10 10 11 12 13 14 15 16 17 18 18 17 17 17 17 18 18 18 19 19 19 19 19 19 18 18 19 19 20 21 21 22 23 23 23 23 24 25 25 26 27 27 28 28 29 30 31 31 32 32 33 34 35 35 35 35 36 37 38 38 38 38 40 42 43 44 46 50 53 55 54 53 54 54 53 51 52 53 54 55 55 56 55 55 54
11 12 13 14 15 16 16 17 16 16 15 15 15 15 16 16 17 16 16 16 16 16 17 17 18 18 19 19 20 21 21 21 21 22 22 22 23 24 25 26 27 28 28 29 29 30 31 31 32 32 33 34 35 35 36 36 37 38 38 38 38 38 40 41 42 44 46 49 52 54 55 54 54 55 54 52 52 53 52 53 55 56 55 55 55
13 13 14 15 15 15 15 15 14 13 13 13 13 14 14 14 14 14 14 14 15 15 16 17 17 18 18 19 19 19 19 18 19 20 21 22 24 26 27 28 29 30 30 31 31 31 32 33 33 33 33 34 34 35 36 36 38 39 39 39 39 39 40 40 41 43 45 48 51 53 54 55 56 55 53 52 52 54 53 52 55 56 54 54 56
13 14 14 14 13 13 12 12 12 11 11 12 11 12 12 12 12 13 13 14 15 16 16 17 17 17 18 18 17 17 17 17 19 20 22 24 25 27 29 30 31 32 33 34 34 35 35 36 36 37 37 37 37 36 36 36 37 39 39 40 40 40 40 41 41 43 45 47 51 52 53 55 58 55 53 53 53 53 52 51 53 56 53 53 56
13 12 12 12 11 11 11 10 10 10 10 10 10 10 11 12 13 14 15 15 16 16 16 16 17 17 17 17 17 17 18 19 20 22 24 26 28 30 32 33 34 35 37 37 38 38 39 39 40 40 40 41 40 40 39 38 38 39 39 40 41 41 41 42 43 44 45 47 51 52 52 56 59 55 53 54 52 51 51 51 53 55 52 52 56
11 11 11 10 10 9 9 8 8 8 8 8 9 10 11 12 13 14 14 15 15 15 15 15 16 17 17 18 19 19 20 21 23 25 27 29 32 34 36 37 38 39 40 41 42 42 43 43 43 43 43 43 43 43 42 41 40 40 40 40 40 41 42 43 44 44 45 47 50 52 53 57 59 56 54 53 51 50 51 51 51 52 50 51 54
10 9 9 8 8 7 6 6 6 7 7 8 9 10 11 11 11 12 12 12 13 14 15 15 17 18 20 21 22 23 23 25 27 29 31 32 34 37 40 41 42 43 44 45 46 47 47 48 48 47 47 46 46 45 44 44 43 42 42 42 41 42 42 43 44 44 44 45 49 52 54 57 58 58 55 52 49 49 49 49 49 50 50 51 53
8 8 7 6 6 5 5 5 5 6 7 7 8 8 9 9 10 11 11 13 14 15 17 18 20 22 24 26 27 28 28 29 31 33 34 35 36 38 41 43 44 46 46 47 48 49 50 51 51 51 51 49 48 48 47 46 46 45 45 45 44 44 44 44 44 43 42 43 46 51 54 55 57 58 55 51 48 48 48 48 49 50 51 53 55
7 6 5 4 4 4 3 4 4 4 5 6 6 7 9 10 11 13 15 16 18 20 22 23 25 27 29 31 32 33 33 33 34 35 36 37 37 39 41 43 44 46 46 47 48 49 50 50 51 52 51 50 49 49 48 47 47 46 46 46 46 46 46 46 46 44 43 42 45 50 51 51 53 55 53 50 50 51 51 50 50 52 53 54 55
5 4 4 3 2 2 2 2 2 3 4 6 8 9 11 14 15 17 19 21 23 25 26 28 29 30 32 34 36 37 36 36 36 37 38 38 39 40 42 44 45 46 47 47 48 49 49 49 50 51 51 50 49 48 48 47 46 47 47 48 48 47 47 48 47 46 44 43 44 47 47 47 48 49 48 47 49 52 53 52 52 53 52 52 53
4 4 3 2 1 1 1 2 3 5 7 9 11 13 15 18 20 21 23 25 26 28 29 31 32 33 34 36 38 40 40 38 38 39 39 40 41 42 43 45 46 47 48 49 49 50 50 49 50 50 51 51 51 48 47 46 46 47 48 48 48 48 49 49 48 46 44 43 43 43 44 43 43 43 43 43 45 48 50 50 51 51 50 50 53
5 4 3 2 1 1 3 5 7 9 11 13 15 17 19 21 23 24 26 27 29 30 32 33 34 36 37 38 39 42 42 41 41 41 42 43 43 45 46 47 49 50 51 51 52 52 52 51 50 50 52 52 51 49 46 44 44 46 47 48 48 50 50 49 46 45 44 43 42 42 42 42 41 41 40 40 42 44 46 50 51 49 48 49 53
4 3 1 1 3 5 7 9 11 13 14 16 17 19 21 22 24 26 28 30 31 33 34 36 36 37 38 39 41 43 45 45 45 45 46 46 46 48 49 50 52 53 54 54 55 55 55 54 53 52 53 53 52 50 47 43 42 44 46 46 48 51 52 49 45 44 44 43 42 42 42 41 41 41 40 39 39 39 42 47 47 46 47 49 51
2 1 2 4 6 8 9 11 13 14 16 17 19 21 22 24 26 27 29 31 33 34 35 37 38 38 39 41 42 44 46 47 47 48 49 49 50 50 51 53 54 55 55 56 58 58 58 57 56 55 54 54 54 52 48 44 41 42 43 44 46 50 51 48 45 44 44 43 44 44 44 43 42 42 41 40 39 38 40 42 42 43 47 49 48
1 2 4 5 7 9 10 12 14 15 17 19 20 22 24 26 27 28 30 32 33 35 36 38 40 41 42 43 44 45 47 49 49 50 51 51 52 52 52 53 54 54 55 56 58 59 59 58 57 56 54 53 53 52 49 45 41 39 39 41 44 48 48 46 44 44 44 44 45 46 46 46 45 45 45 43 42 42 41 41 41 42 45 47 47
3 4 5 7 8 10 12 14 15 17 19 20 22 23 25 26 28 29 31 32 34 36 37 39 41 42 43 44 45 46 48 50 51 52 53 54 54 54 54 54 54 52 53 56 58 58 58 58 58 57 55 53 52 50 48 46 42 38 38 39 42 44 44 44 44 44 45 46 47 47 48 48 47 46 47 46 46 45 44 43 42 41 43 44 45
4 5 7 8 10 12 13 15 17 18 20 22 23 24 25 26 28 30 31 33 35 36 38 40 42 43 45 46 47 48 50 52 53 54 55 56 56 54 54 54 52 49 49 53 55 55 55 56 57 57 55 53 52 48 46 45 43 41 40 41 43 44 43 44 45 46 46 47 47 48 49 49 48 47 47 47 48 47 46 44 42 41 41 41 41
6 7 8 10 11 13 15 16 18 19 21 22 23 25 26 27 29 31 33 34 36 38 40 41 44 46 48 49 50 51 52 53 54 55 56 56 56 55 53 52 49 44 42 46 51 53 53 54 55 55 54 53 52 49 46 45 45 44 42 42 43 43 43 44 45 46 47 47 47 49 49 49 48 48 47 47 48 47 46 44 43 42 41 40 38
7 8 10 11 12 14 16 17 18 20 21 22 24 25 27 29 30 32 34 36 38 40 42 44 46 48 51 52 53 54 55 55 55 56 56 57 56 55 52 50 47 43 41 44 48 50 51 52 53 53 53 52 52 50 48 47 46 45 43 41 40 40 41 43 44 45 46 46 47 48 48 48 48 47 47 47 47 45 44 43 43 42 40 38 37
8 9 11 13 14 15 16 17 19 20 21 23 25 27 29 30 32 34 36 38 40 42 44 46 47 49 51 53 55 55 56 56 56 56 56 57 56 53 51 49 49 46 45 46 47 47 48 49 51 52 52 52 51 50 49 49 48 46 44 42 40 40 41 42 43 43 44 44 44 45 45 46 46 47 46 45 44 43 42 42 41 40 38 36 35
10 11 12 14 15 16 18 18 19 21 22 24 26 28 30 32 34 35 37 39 41 43 44 46 48 49 50 52 53 55 56 56 56 56 57 56 54 52 51 51 51 49 46 45 44 45 46 48 50 51 51 51 51 50 49 49 47 46 45 43 40 40 40 40 39 39 39 40 41 43 45 46 46 44 42 40 40 41 40 40 39 38 36 34 34
11 12 14 16 17 18 19 20 21 22 24 26 28 29 31 33 34 36 38 39 41 42 44 45 46 47 49 51 52 54 54 55 56 56 56 55 53 51 50 49 49 48 47 46 45 45 47 49 49 49 50 50 50 49 48 47 45 44 44 42 39 38 38 37 36 36 38 39 41 43 44 44 42 41 39 38 39 40 38 37 36 35 33 31 30
13 14 16 17 18 19 20 21 23 25 26 27 28 29 31 32 34 35 37 38 40 42 43 43 44 45 46 48 50 51 53 53 53 52 52 52 50 48 46 46 46 46 46 46 45 45 47 48 48 49 49 48 48 47 46 44 42 41 41 40 38 37 37 36 37 38 39 40 40 40 40 39 38 36 35 35 36 36 35 33 32 32 30 28 28
14 16 17 18 19 20 21 23 24 25 26 27 28 29 30 32 33 35 36 37 38 39 40 41 42 42 43 44 45 47 49 51 50 49 49 48 46 44 43 44 44 44 43 43 43 45 46 47 47 47 47 46 46 45 44 42 41 40 39 38 38 37 37 38 39 40 39 37 36 36 36 35 35 34 33 33 33 32 31 30 29 29 28 26 27
17 18 18 19 19 20 21 22 23 24 25 27 28 29 30 31 33 34 35 35 36 36 37 38 38 39 40 41 41 41 44 46 47 46 47 47 46 44 43 42 41 42 41 41 42 44 45 45 46 46 46 45 44 43 42 41 40 39 39 38 37 38 39 39 38 36 34 32 32 32 32 32 32 32 32 32 31 30 29 28 27 27 25 24 26
17 17 17 17 18 19 20 21 23 24 26 28 30 31 32 32 32 32 33 33 34 34 35 36 37 37 38 40 40 41 41 42 43 43 44 45 46 45 45 43 40 39 40 40 41 44 45 45 45 45 43 42 41 40 39 38 37 38 38 39 39 39 38 36 32 30 30 30 29 29 29 29 29 28 29 29 29 28 27 26 25 25 24 23 24
15 15 16 16 17 19 21 22 24 26 27 28 30 31 32 33 33 33 32 32 33 34 35 36 37 37 37 38 39 41 42 42 42 42 43 44 44 44 43 42 40 39 38 37 38 40 41 41 41 40 39 39 38 37 36 37 38 38 38 38 38 36 33 31 29 29 29 29 28 27 27 27 26 25 25 26 27 27 26 25 24 24 23 22 22
14 15 16 17 18 20 22 23 25 26 27 28 28 29 30 32 34 35 35 35 35 36 36 37 38 38 39 38 38 38 39 41 42 42 42 41 40 39 38 38 38 37 35 33 34 36 37 37 38 37 36 36 36 36 36 37 37 35 34 34 34 32 31 30 29 29 27 26 25 25 24 23 23 23 24 25 25 25 24 23 23 22 21 21 21
15 16 17 18 19 21 22 23 24 24 25 26 26 27 28 30 32 35 37 39 40 40 40 39 39 39 39 39 38 37 36 37 38 39 40 39 36 33 33 35 36 35 33 33 33 34 35 36 36 36 35 35 34 34 35 34 33 31 31 30 29 28 28 27 26 24 23 22 21 21 21 21 22 23 24 24 23 22 22 21 21 20 20 20 21
15 17 18 19 20 20 21 21 22 22 23 24 25 26 27 29 31 33 36 38 40 42 42 41 40 39 38 39 39 38 36 35 35 35 35 35 33 31 31 32 33 35 35 35 33 33 33 34 35 35 34 33 31 31 30 30 29 28 27 26 25 25 24 24 22 21 20 19 19 19 20 21 22 23 22 22 21 20 20 19 19 19 19 20 21
16 17 17 18 19 19 19 20 20 21 22 23 24 25 27 29 30 32 33 35 36 38 40 40 40 39 38 38 38 38 38 37 36 34 33 32 30 30 31 32 33 35 36 35 33 32 32 32 31 30 29 28 28 28 27 27 26 25 24 23 23 22 22 21 20 19 19 18 18 20 21 23 23 22 20 20 19 19 18 17 17 17 18 19 19
16 16 17 18 18 18 18 18 19 20 21 22 24 25 27 28 29 30 31 32 33 35 37 38 39 40 40 40 40 39 39 38 37 36 34 33 30 29 30 31 33 33 33 33 32 31 31 30 29 28 27 27 27 27 26 26 25 24 23 22 21 21 20 19 18 18 18 18 18 19 22 22 21 19 18 17 16 16 16 15 15 15 17 17 17
16 16 16 17 17 16 17 17 18 19 21 22 23 25 26 26 27 28 29 30 32 33 35 36 37 39 40 40 41 40 40 39 38 38 37 36 33 31 30 30 30 31 31 30 30 31 30 30 30 29 29 28 28 27 27 26 26 25 24 22 21 20 19 18 17 17 17 17 17 18 20 21 18 16 14 14 14 14 14 13 13 14 15 15 15
15 16 15 15 15 15 16 17 18 19 20 21 22 22 23 24 25 27 28 29 31 32 34 35 35 35 37 38 39 40 40 40 39 39 39 37 34 31 29 29 28 28 28 29 30 31 31 30 30 29 29 28 28 27 27 26 25 24 23 22 21 20 19 18 18 17 17 17 16 16 18 18 16 14 11 10 10 10 11 11 11 12 13 13 13
14 14 14 14 14 15 15 16 17 18 19 19 20 20 21 22 24 25 26 28 30 31 32 33 33 33 33 34 35 36 37 38 37 36 36 35 34 32 30 28 28 27 27 28 29 30 29 29 29 28 28 27 26 26 25 24 23 22 22 21 20 19 18 17 16 16 16 17 16 16 16 16 15 13 12 10 8 7 8 8 9 10 11 12 12
13 13 12 13 13 14 14 15 15 16 16 17 18 19 20 21 22 24 25 26 28 29 30 31 31 31 31 31 31 31 32 33 33 33 32 32 32 31 30 29 28 27 27 28 28 28 28 28 29 28 27 27 26 25 23 22 21 20 20 19 19 18 18 16 15 14 14 15 15 15 15 15 14 13 12 11 10 9 8 7 7 9 10 12 12
11 11 12 12 12 12 13 13 14 14 15 16 17 18 19 20 21 23 24 25 27 28 29 30 30 30 29 29 29 29 29 30 30 30 30 30 30 29 29 28 28 27 27 27 28 27 27 27 28 28 28 27 27 26 25 24 22 21 19 18 18 18 17 16 15 14 12 12 12 12 13 13 13 13 12 11 11 10 9 8 8 8 10 12 13
11 11 11 11 11 12 12 12 13 13 14 15 16 17 19 20 21 22 24 25 26 27 28 29 29 29 29 28 28 28 28 29 29 29 29 29 29 29 28 28 27 27 26 26 26 26 26 26 26 26 26 26 26 25 25 24 23 22 20 18 17 16 16 16 15 14 12 11 11 10 10 10 10 10 10 10 10 10 10 9 8 8 9 11 11
10 10 11 11 11 12 12 12 13 13 14 15 16 17 19 20 21 22 23 24 25 26 27 28 29 29 29 29 28 28 28 29 29 29 29 29 29 29 28 28 27 27 26 25 25 25 25 25 25 24 24 23 23 23 23 22 21 21 20 19 17 15 15 15 14 14 13 12 11 9 9 8 7 7 7 7 7 8 8 7 7 7 8 8 9
10 10 11 11 11 12 12 13 13 14 15 16 17 18 19 20 21 22 23 24 25 26 27 27 28 28 29 29 29 28 28 28 28 29 29 29 29 29 28 28 27 27 26 25 25 24 25 25 25 24 23 22 21 21 21 20 19 18 18 18 17 16 15 15 14 14 13 12 11 9 8 7 6 5 4 4 4 5 5 5 6 6 7 8 8
11 10 11 11 12 12 13 14 14 15 16 17 18 18 19 19 20 21 21 22 23 24 25 26 26 27 27 28 28 28 28 28 28 28 28 29 29 29 28 28 27 27 27 26 25 24 24 24 24 24 23 23 22 21 20 19 18 17 16 16 15 15 14 14 14 14 13 12 11 8 7 6 5 4 3 3 3 3 3 4 5 6 6 7 7
11 11 11 12 13 14 14 15 16 16 17 17 18 18 19 19 19 19 20 20 21 22 23 24 25 25 26 26 27 27 27 28 27 27 27 28 28 28 28 28 27 27 26 26 25 25 24 23 23 22 22 22 21 20 20 18 17 16 16 15 14 13 12 13 13 14 13 12 11 9 7 6 5 4 3 2 2 2 3 3 4 4 5 5 5
12 12 13 14 15 15 16 16 16 17 17 17 17 18 18 18 18 18 19 19 20 21 22 23 24 25 25 26 27 27 27 27 27 27 27 27 27 27 28 28 27 27 26 26 25 25 24 24 23 23 22 22 21 20 19 18 17 16 15 15 14 13 12 12 11 12 12 12 11 10 8 7 6 5 4 2 1 1 2 3 3 4 4 4 5
13 14 14 15 16 17 17 17 17 17 18 17 17 17 17 17 17 18 19 20 20 21 22 24 24 25 26 26 27 27 28 28 28 28 28 27 27 27 27 27 27 27 27 26 25 25 24 24 23 23 22 22 21 21 20 19 18 17 16 15 14 13 12 12 11 10 10 10 10 10 9 8 7 6 5 3 2 1 1 2 3 3 3 4 5
15 15 16 17 18 18 17 17 17 18 18 17 17 17 17 17 18 19 19 20 21 21 22 23 24 25 26 27 27 28 28 28 29 29 29 28 28 27 27 27 27 27 26 26 26 25 25 24 23 23 22 22 21 21 20 20 19 18 17 16 15 14 13 12 12 11 10 9 8 8 8 8 7 6 5 4 2 1 0 1 2 2 3 3 4
16 16 17 18 18 18 18 18 18 18 17 17 17 17 18 18 19 19 20 21 22 22 23 24 25 26 26 27 28 28 29 29 29 29 29 29 29 28 28 27 27 27 26 26 26 25 25 24 24 23 22 22 21 20 20 20 19 19 18 17 16 16 15 14 13 12 11 10 9 9 8 8 7 7 6 5 4 3 2 2 2 3 3 4 4
Wind_Direction
198 197 195 193 193 193 194 200 209 226 242 248 252 254 258 266 273 279 285 290 295 300 303 303 302 301 301 301 301 302 302 301 300 299 298 297 295 294 292 291 290 290 290 288 287 285 285 285 285 286 285 284 284 285 285 285 284 283 279 278 279 279 279 272 267 277 288 287 284 288 289 287 287 288 288 289 291 290 290 289 287 286 285 285 285
190 188 186 186 187 190 198 212 226 239 247 250 255 261 267 274 279 285 291 295 299 301 301 299 298 297 297 298 298 298 298 297 297 296 296 296 296 296 296 296 296 296 295 295 295 293 291 290 290 291 288 286 286 286 286 285 283 282 281 279 280 281 279 275 271 274 285 290 288 287 290 288 286 287 288 289 290 290 290 288 287 286 285 285 286
180 181 184 187 194 204 216 230 239 247 254 258 263 268 273 278 283 288 292 296 297 296 295 295 294 294 294 294 294 294 294 295 295 295 296 297 298 300 300 299 299 299 300 300 300 298 296 295 295 295 292 289 288 286 285 283 281 280 280 279 280 281 280 277 275 273 280 288 290 286 286 287 285 287 288 288 288 288 287 287 287 287 286 285 284
184 189 197 205 216 226 235 244 251 256 261 264 268 272 276 281 285 288 291 292 292 291 291 291 291 291 291 291 292 292 294 295 296 298 299 300 301 302 303 302 301 302 302 303 302 300 298 297 297 296 293 290 290 289 286 283 281 280 281 281 280 281 281 277 276 275 277 284 288 287 284 285 286 286 286 286 286 286 286 287 287 287 287 286 284
200 209 218 228 236 243 250 255 259 262 265 268 272 275 278 281 284 286 288 288 288 288 289 289 288 289 290 291 292 294 296 299 300 302 302 303 303 303 303 303 303 303 303 304 304 303 302 301 301 300 297 295 295 295 293 290 288 285 284 284 283 282 282 279 277 278 277 279 286 289 286 285 286 286 285 284 285 286 286 287 287 287 287 285 284
217 226 234 241 246 250 254 257 261 265 268 270 273 275 278 281 283 284 285 286 286 286 286 286 286 289 291 293 296 298 300 302 303 304 305 305 305 306 306 306 306 306 307 307 307 306 305 305 305 304 302 302 301 300 299 296 293 291 288 287 286 282 280 279 277 278 277 278 283 286 286 285 285 285 285 284 284 285 286 287 287 287 286 286 286
226 233 239 243 247 252 255 259 263 266 269 270 273 276 278 280 282 283 283 284 284 284 285 287 290 294 296 299 301 303 305 307 308 309 311 312 312 312 312 312 312 312 312 312 311 310 310 309 308 308 306 305 304 303 302 299 297 295 292 291 289 284 280 279 277 276 277 278 279 282 284 284 284 284 286 286 284 283 283 283 285 286 287 289 290
234 239 244 248 253 256 259 261 263 264 267 269 272 275 277 278 279 281 282 284 286 289 292 295 298 300 304 306 308 310 312 315 316 317 318 319 318 318 317 317 317 316 315 315 314 313 312 311 310 309 309 307 306 304 303 302 300 298 296 294 291 287 283 281 278 276 276 276 278 279 281 283 283 282 284 283 281 281 282 282 285 287 288 289 291
245 249 253 255 257 257 257 257 258 260 263 265 268 270 272 275 278 281 286 289 293 297 299 301 304 306 308 310 312 315 319 322 323 323 323 323 320 319 318 317 316 316 315 314 314 313 313 312 311 311 310 309 307 306 305 304 302 300 299 297 293 289 285 282 279 277 276 275 277 278 278 279 281 280 280 279 278 281 283 283 284 286 287 288 290
252 254 254 253 251 249 248 248 250 253 257 260 265 270 274 279 284 289 294 298 301 304 307 309 310 311 313 315 317 320 323 325 324 324 323 321 319 317 315 314 314 313 312 312 311 311 311 310 310 310 309 308 307 307 306 305 303 302 301 298 294 290 286 281 278 275 274 273 274 276 275 276 279 278 277 278 279 280 282 280 281 285 286 284 285
248 247 245 242 239 238 239 242 247 254 261 270 277 283 289 293 297 300 304 308 310 312 314 314 314 315 316 317 319 320 323 324 322 321 321 319 317 315 313 312 311 310 310 309 309 309 308 307 307 307 306 306 306 305 305 304 302 301 299 297 294 291 286 282 279 275 271 270 273 274 272 274 278 278 276 277 278 277 279 279 280 282 282 279 280
236 234 231 229 229 232 239 248 262 272 283 292 296 300 303 305 309 311 312 315 316 316 316 317 317 317 316 316 317 318 319 319 318 316 316 316 315 313 311 310 310 309 308 308 307 307 306 306 305 304 304 304 304 304 303 303 302 300 298 296 293 290 287 284 282 278 273 270 271 273 272 272 275 277 276 276 277 277 277 278 278 279 279 277 276
221 219 218 221 227 240 255 270 285 296 302 307 310 311 313 314 315 318 318 317 318 318 317 317 318 318 318 317 317 316 316 316 315 314 314 313 313 311 309 308 308 307 307 307 306 306 305 304 304 303 302 302 302 301 301 301 301 300 298 295 291 289 287 285 283 281 276 272 270 273 277 275 273 276 277 275 276 278 277 277 278 279 278 277 277
210 210 214 222 234 251 275 289 299 310 315 317 319 319 320 320 320 322 322 321 320 320 320 320 320 320 320 318 316 315 315 315 314 313 312 312 312 310 309 308 308 307 307 307 306 306 305 304 303 302 302 301 300 300 300 299 299 298 296 294 291 290 288 286 284 281 278 274 272 275 281 279 274 276 278 276 275 277 277 277 278 279 279 279 282
198 197 199 209 222 242 280 299 313 326 330 329 329 327 326 326 324 324 323 322 322 321 320 320 319 318 317 316 314 313 314 315 314 313 313 314 312 311 309 308 307 306 306 306 306 306 306 305 304 303 302 301 300 299 300 299 298 296 294 292 291 290 288 286 283 280 278 277 274 275 279 279 276 276 278 276 274 275 276 279 280 280 279 279 280
173 167 163 163 158 163 323 331 331 332 331 329 328 326 325 324 322 321 321 320 319 319 318 317 317 316 316 316 315 314 315 317 318 317 317 316 314 312 311 309 308 307 307 307 307 306 306 305 305 305 303 302 302 301 301 301 298 296 293 292 290 289 287 285 282 280 280 280 278 276 277 279 279 277 275 274 272 273 276 278 279 278 276 275 276
152 148 143 135 97 345 333 331 327 325 325 325 324 323 322 321 321 320 319 319 319 319 319 318 319 319 319 319 319 317 318 320 322 321 320 319 318 316 314 313 311 310 309 309 308 307 306 305 305 305 304 304 304 304 303 301 298 296 294 293 291 289 287 287 285 284 285 285 283 281 281 281 280 278 275 272 270 272 274 274 274 274 273 272 274
146 142 129 353 336 331 326 325 324 323 323 323 323 322 322 322 322 322 321 321 322 322 322 321 321 322 322 323 323 322 320 321 323 323 321 321 320 318 316 314 312 311 311 310 308 307 306 305 306 306 305 305 306 305 304 302 298 296 295 294 292 290 290 291 290 289 290 288 286 285 283 282 281 279 277 275 271 270 270 269 270 271 271 269 271
165 231 318 322 323 325 323 322 322 322 323 324 324 325 325 325 325 325 324 324 323 323 324 323 322 323 324 323 323 322 321 321 322 322 321 321 320 319 317 315 313 312 311 309 307 306 305 306 306 306 306 306 306 305 304 302 298 296 295 293 289 289 293 294 292 291 291 289 288 287 285 284 284 282 281 280 277 273 270 268 268 269 268 268 269
277 311 321 321 320 321 320 321 323 323 325 327 327 328 328 327 327 326 326 325 325 325 325 324 323 323 323 323 322 322 322 321 320 320 320 319 319 318 317 315 314 313 311 308 306 305 305 305 304 304 304 304 304 303 302 301 297 294 292 288 285 288 293 294 292 290 288 287 287 286 286 286 285 284 283 282 280 277 274 271 269 267 266 267 268
321 319 320 318 319 322 323 325 327 328 328 328 329 329 329 328 327 327 326 326 325 324 324 323 322 321 321 322 322 322 322 321 319 318 318 318 318 318 317 316 315 315 312 309 307 306 305 305 304 303 303 302 301 300 299 298 296 291 287 284 284 286 289 289 288 288 286 284 284 285 286 286 285 285 284 283 282 281 278 276 274 271 269 268 268
308 311 317 319 322 325 326 327 328 328 328 327 327 328 328 327 326 326 325 324 323 323 323 323 321 320 320 320 321 321 320 319 318 317 316 316 316 316 316 315 315 314 311 308 307 306 306 305 304 303 303 302 300 299 297 295 294 290 288 286 286 287 286 286 287 286 284 284 284 284 284 284 283 283 283 282 283 283 280 279 279 278 276 274 273
305 311 315 318 322 323 324 325 326 325 326 326 325 325 325 325 325 325 325 325 324 324 324 324 323 322 320 320 319 320 319 318 317 316 315 315 315 315 315 314 314 313 310 307 306 306 306 305 304 303 303 301 299 298 296 294 291 290 290 291 291 291 290 288 287 286 285 284 284 282 282 283 282 282 281 281 282 282 280 280 281 281 280 280 278
302 309 313 316 320 322 322 324 324 323 324 324 324 325 326 326 327 327 328 328 327 327 327 327 326 324 323 322 320 320 319 318 318 317 316 315 315 315 315 314 313 311 308 305 305 306 306 306 305 304 303 301 300 299 297 295 293 293 295 297 298 297 294 291 288 286 284 282 281 280 281 283 283 283 283 284 283 282 281 280 281 281 280 280 279
302 309 315 317 319 320 320 321 322 323 324 325 325 327 328 329 330 330 331 331 331 330 330 329 328 327 325 323 321 319 319 318 317 317 316 316 316 316 315 314 313 312 310 309 309 309 308 307 306 306 305 303 302 301 299 297 296 297 299 302 303 300 295 292 289 285 281 280 280 281 283 285 286 286 286 286 284 282 281 280 280 280 279 279 278
308 312 315 316 317 318 319 320 322 323 325 327 328 330 331 332 332 333 333 333 332 331 329 328 327 325 323 321 320 319 319 318 318 317 316 316 316 316 316 315 315 315 314 313 311 310 308 307 307 306 305 304 303 301 300 299 299 300 302 304 305 301 297 294 290 286 284 283 284 285 285 286 287 288 286 284 281 281 280 279 279 280 280 279 277
309 312 314 316 317 318 319 321 323 325 327 329 330 331 332 332 333 333 333 331 329 328 327 326 324 323 321 320 319 319 318 318 317 317 317 317 317 318 318 317 316 316 314 313 313 311 309 307 306 305 304 304 303 302 301 301 301 303 304 305 305 303 300 297 293 290 288 287 287 287 287 288 288 287 285 282 280 281 281 281 281 281 281 279 276
307 311 313 315 317 320 322 324 326 327 328 328 329 330 330 330 330 330 330 329 327 326 325 323 323 322 321 320 319 318 317 317 319 320 320 319 319 318 318 316 314 313 312 312 312 311 308 307 305 305 305 304 303 303 301 300 300 301 302 301 299 299 299 297 293 292 291 290 290 290 290 289 288 287 286 284 283 284 284 283 282 281 279 276 272
308 312 315 317 320 321 323 324 324 324 324 325 326 328 329 329 328 328 328 327 325 324 323 322 322 322 321 321 323 323 321 320 322 322 322 320 318 315 313 311 311 310 311 312 311 309 307 306 305 304 304 302 301 300 299 299 298 297 298 297 294 294 297 298 295 294 293 293 292 291 290 289 288 287 286 286 288 289 288 285 282 278 275 272 267
310 312 314 315 316 317 318 319 320 322 323 325 326 326 327 327 326 325 324 324 323 323 322 322 322 324 324 323 325 326 325 324 324 322 320 318 316 313 311 311 311 310 312 313 311 306 304 303 302 302 301 299 298 297 297 297 297 296 296 296 294 294 297 299 298 297 296 296 294 291 289 288 286 285 287 290 292 292 290 286 280 275 273 269 262
304 305 307 309 312 314 317 319 321 324 326 326 326 325 323 323 323 323 323 323 323 323 323 323 324 326 327 327 327 327 326 326 325 323 321 320 318 316 315 315 315 314 314 312 309 305 303 302 301 301 301 299 298 298 298 298 298 298 299 299 298 298 301 302 302 301 299 297 295 291 287 286 286 287 290 293 294 292 290 284 276 271 271 267 259
298 301 305 310 314 318 320 323 325 326 327 326 325 324 323 322 323 324 325 325 325 325 325 327 328 330 331 332 331 329 327 326 326 325 325 324 322 320 318 317 318 319 317 313 309 307 307 306 305 305 304 303 301 299 299 300 301 301 301 301 302 303 303 304 304 303 299 296 293 290 288 287 288 291 295 295 293 291 288 281 274 271 269 261 252
301 306 310 315 319 322 324 326 326 326 325 324 324 324 325 326 326 327 327 328 329 329 330 331 333 334 335 335 335 333 330 328 327 327 327 326 326 325 322 320 322 324 323 320 317 315 314 313 312 310 308 306 304 301 302 304 306 307 307 308 308 307 306 306 307 305 302 299 298 295 295 295 297 299 299 296 293 290 286 280 274 269 262 253 246
307 311 315 319 321 323 324 324 323 323 323 324 325 327 329 330 330 330 331 331 331 333 335 337 337 337 336 335 334 335 333 330 329 329 329 329 331 332 328 325 326 327 327 326 325 322 319 317 316 314 313 311 309 307 308 311 313 314 315 315 314 313 312 312 311 309 306 306 306 306 307 308 307 305 300 296 294 292 287 280 273 265 256 249 244
310 314 317 319 320 320 320 320 321 323 324 327 329 330 332 333 334 335 336 336 335 335 335 336 337 338 337 335 334 334 334 334 333 333 333 334 335 334 331 328 327 327 328 328 327 324 321 319 318 317 317 317 315 315 316 318 320 321 321 320 319 318 318 316 314 313 312 313 315 317 317 315 313 309 303 298 295 292 288 282 273 263 254 248 243
309 312 314 316 316 317 319 320 323 326 328 330 332 333 335 337 338 339 339 338 337 335 334 333 334 336 338 339 338 336 335 336 336 338 341 341 338 336 334 332 329 328 329 330 329 326 324 323 321 321 320 319 317 317 319 320 320 320 320 320 319 319 319 319 318 318 319 321 323 324 322 319 317 313 308 302 296 291 287 282 272 259 251 248 246
304 308 310 311 313 315 318 322 325 328 331 333 335 338 340 341 341 340 338 337 336 335 336 337 338 339 340 341 340 338 337 336 337 339 343 344 342 341 339 336 333 332 332 334 334 332 330 329 328 326 324 322 320 319 318 318 317 317 317 316 317 318 320 322 323 325 327 328 330 330 327 325 322 318 312 306 297 290 285 280 268 256 250 250 248
301 304 305 307 310 314 318 323 328 331 335 337 339 341 341 340 339 338 338 338 339 339 341 343 344 344 343 342 341 340 338 337 338 339 342 344 346 346 343 339 336 334 334 335 336 335 333 331 330 328 326 325 323 321 320 318 317 317 316 315 316 317 318 322 327 331 333 334 334 333 332 331 331 327 317 308 300 293 288 281 268 254 248 248 247
297 300 302 306 312 316 322 328 332 335 338 339 340 340 339 338 339 340 341 342 342 343 344 346 347 347 346 344 342 342 341 340 340 340 340 343 346 346 344 341 338 336 335 336 338 338 336 335 333 331 329 326 324 322 322 321 320 320 320 319 318 317 318 322 328 332 334 335 335 335 335 338 343 345 337 323 311 300 291 283 270 256 248 246 246
294 297 301 308 315 321 327 332 334 335 337 337 337 338 339 341 343 344 344 344 344 345 346 346 347 349 349 347 346 344 342 341 340 338 337 339 343 346 347 346 342 339 338 338 340 340 340 340 340 338 337 335 331 328 326 325 324 324 325 324 323 321 319 320 324 328 331 332 332 333 333 336 342 348 349 345 336 319 302 287 270 256 247 244 240
290 296 304 312 319 325 327 329 330 332 334 336 337 340 342 344 345 344 344 345 344 344 345 345 347 349 350 349 348 346 343 340 338 337 336 337 339 342 345 347 346 345 343 341 341 342 342 343 344 344 344 343 342 340 338 335 331 329 328 329 329 327 323 321 322 324 327 329 329 329 329 328 329 332 335 337 336 331 322 304 277 257 246 239 235
289 299 307 312 316 318 320 323 326 330 333 336 339 341 341 342 341 341 342 342 342 342 342 342 344 346 348 348 348 347 346 344 342 340 338 338 337 338 341 342 344 345 345 344 344 343 343 343 344 345 346 347 347 348 348 347 345 341 337 334 333 331 328 325 324 323 324 326 327 328 327 325 323 322 322 322 320 318 314 303 283 262 247 239 237
291 298 302 303 306 310 315 320 325 329 331 334 335 336 336 336 336 336 337 337 337 337 337 338 339 341 343 345 346 346 346 346 345 344 343 341 340 339 338 338 338 339 340 342 342 342 342 342 343 344 346 347 349 350 351 352 352 350 347 343 339 335 332 329 326 325 325 325 326 327 326 324 323 320 317 314 310 307 303 296 283 268 254 247 246
285 288 291 296 302 308 313 318 322 324 326 328 328 328 329 330 330 331 331 331 331 331 332 333 334 335 337 340 342 343 345 346 346 345 345 344 344 343 341 339 338 336 335 336 336 336 337 338 339 341 343 344 346 349 351 352 354 355 356 354 351 347 343 339 335 332 330 327 327 329 328 326 324 319 315 311 306 303 299 293 285 278 271 265 262
276 281 289 296 301 306 309 312 314 316 317 319 321 323 324 324 325 326 326 326 326 327 328 329 330 331 332 334 337 339 341 342 343 343 344 344 344 345 344 343 342 340 338 337 335 334 333 332 332 333 336 338 341 345 347 348 351 354 356 356 357 357 358 357 352 346 339 331 325 325 329 333 332 326 321 314 303 296 291 283 276 272 268 264 261
274 280 287 293 296 300 303 304 306 309 313 315 317 319 320 322 323 323 324 324 325 326 326 328 329 330 331 332 333 334 335 336 337 339 340 340 341 342 343 344 344 344 343 342 340 338 336 334 332 331 331 332 334 337 339 341 344 346 348 350 352 354 359 2 1 357 352 344 335 330 332 337 336 326 314 300 277 257 246 242 242 240 240 240 239
273 278 283 287 290 293 296 299 302 306 310 313 315 317 319 320 322 323 324 325 326 326 328 329 331 332 333 333 333 333 333 333 333 334 334 335 336 337 338 340 341 342 343 343 343 342 342 341 340 339 337 336 335 334 333 334 336 338 341 343 344 346 354 0 1 360 358 356 352 348 347 349 346 334 321 304 267 236 220 213 211 210 213 217 216
271 275 279 283 287 291 294 298 302 305 308 310 312 314 316 318 321 322 323 325 326 327 327 329 331 332 333 333 334 334 334 334 334 333 332 332 331 331 332 333 335 337 338 339 340 341 342 342 343 343 343 342 342 340 339 338 336 335 335 335 336 339 344 348 351 354 356 358 359 358 355 355 352 344 336 331 309 257 216 195 189 189 189 186 184
270 273 278 283 286 290 295 297 300 302 304 305 307 310 312 315 317 319 320 322 323 324 325 326 327 328 329 330 331 331 332 333 333 333 334 333 332 330 330 329 329 330 331 333 335 336 337 338 340 340 341 342 342 343 343 343 342 341 338 335 332 333 333 332 333 337 342 347 353 355 355 355 354 350 347 345 340 336 165 168 175 184 187 181 180
269 273 279 283 286 290 293 295 296 297 298 300 303 306 308 311 314 316 318 319 320 322 323 323 324 325 326 326 327 327 328 328 329 330 331 332 332 332 331 329 328 327 326 327 328 329 330 332 333 334 335 336 337 338 339 340 340 341 342 340 338 336 334 331 328 325 323 324 329 334 339 343 344 346 348 347 343 344 318 176 176 180 188 189 189
270 275 279 283 285 288 289 289 289 291 292 295 299 302 305 309 312 314 316 318 319 321 322 322 322 323 323 323 324 324 324 325 325 325 326 327 328 328 329 329 329 328 327 326 325 324 324 325 326 327 327 329 330 330 332 333 333 334 336 336 336 336 335 334 333 329 326 323 319 314 312 313 314 316 320 320 313 303 280 245 219 210 211 213 211